[[{"header":{"parameterUnit":"m.s-1","parameterCategory":1,"la1":30.2991,"la2":30.254,"lo1":-89.0895,"lo2":-89.0444,"dy":0.0017,"dx":0.0017,"nx":28,"ny":28,"refTime":"2025-12-25T09:00:00:Z","depth":0,"parameterNumber":2,"parameterNumberName":"U-component_of_WINDS"},"data":[0,0,0,0,0,0,0,0,0,0,0,0,0,0,0,0,0,0,0,0,0,0,0,0,0,0,0,0,0,0,0,0,0,0,0,0,0,0,0,0,0,0,0,0,0,0,0,0,0,0,0,0,0,0,0,0,0,0,1.0208,1.0208,0,1.0245,1.0245,1.0246,1.0182,1.018,1.0178,1.0176,1.0217,1.022,1.0223,0,0,0,0,0,0,0,0,0,0,0,0,0,1.0086,1.0088,1.0208,1.0208,1.0209,1.0245,1.0245,1.0246,1.0183,1.018,1.0178,1.0175,1.0216,1.022,1.0224,0,0,0,0,0,0,0,0,0,0,0,0,0,1.0132,1.0089,1.0208,1.0182,1.018,1.0245,1.0245,1.0246,1.0183,1.018,1.0177,1.0174,1.0215,1.0219,1.0224,1.0317,0,0,1.0238,1.024,0,0,0,0,0,0,0,0,1.013,1.0137,1.0185,1.0184,1.0181,1.0206,1.0217,1.027,1.0184,1.0182,1.0176,1.0172,1.0216,1.0221,1.0235,1.0319,1.0321,1.0239,1.0241,1.0243,1.0245,0,0,0,0,0,0,0,1.0127,1.0135,1.0223,1.0186,1.0184,1.0169,1.0172,1.0227,1.0217,1.0182,1.0177,1.0183,1.0215,1.023,1.0235,1.0322,1.0239,1.0243,1.0246,1.0247,1.0486,1.049,0,0,0,0,0,0,1.0126,1.0133,1.0221,1.0224,1.0147,1.0174,1.0177,1.0201,1.0216,1.0215,1.0185,1.0179,1.0224,1.023,1.0236,1.0348,1.0243,1.0248,1.025,1.0483,1.0487,1.0491,0,0,0,0,0,0,1.0124,1.0135,1.022,1.0177,1.0187,1.0179,1.0207,1.0204,1.0219,1.0218,1.0217,1.0203,1.0222,1.023,1.0298,1.0349,1.025,1.0254,1.0479,1.0484,1.0489,1.0572,0,0,0,0,0,0,1.0121,1.0134,1.0169,1.0178,1.0189,1.028,1.021,1.0207,1.0227,1.022,1.0235,1.0234,1.022,1.0291,1.0303,1.0353,1.0258,1.0474,1.0481,1.0487,1.0565,1.0579,1.0592,0,0,0,0,0,1.0116,1.0191,1.0171,1.0182,1.0232,1.0283,1.029,1.0271,1.0231,1.0267,1.0266,1.0234,1.0341,1.0299,1.0311,1.0364,1.0471,1.0479,1.0487,1.0559,1.0576,1.0592,0,0,0,0,0,0,1.0189,1.0192,1.017,1.025,1.0267,1.0273,1.0317,1.029,1.032,1.0312,1.0288,1.0292,1.0365,1.0371,1.0324,1.0456,1.0399,1.041,1.045,1.0467,1.048,1.0478,1.0262,0,0,0,0,0,1.0214,1.0255,1.0255,1.0325,1.0335,1.0325,1.0346,1.033,1.0347,1.0354,1.0358,1.0377,1.0415,1.0441,1.0475,1.0564,1.0568,1.0607,1.062,1.0632,1.0642,1.0691,1.0709,1.0517,1.0517,1.0517,0,0,1.0267,1.0274,1.0301,1.034,1.0352,1.0395,1.0331,1.0379,1.0412,1.0362,1.0427,1.043,1.045,1.0529,1.0564,1.0536,1.0695,1.0642,1.0651,1.0655,1.0701,1.0719,1.0736,1.0523,1.0522,1.0521,0,0,1.0386,1.0394,1.0455,1.0467,1.0485,1.0477,1.0492,1.0501,1.0502,1.0566,1.053,1.0568,1.0633,1.0649,1.0666,1.0791,1.0762,1.0802,1.0875,1.0923,1.0938,1.0952,1.0998,1.1015,1.0812,1.0812,1.0813,0,1.045,1.0513,1.0489,1.054,1.056,1.0515,1.0576,1.059,1.0618,1.0633,1.0601,1.0682,1.0692,1.0775,1.0806,1.082,1.0837,1.0802,1.0938,1.0951,1.0963,1.1007,1.1024,1.0817,1.0817,1.0816,1.0816,0,1.0592,1.0636,1.0683,1.0711,1.0735,1.0791,1.0777,1.0804,1.0786,1.0782,1.0849,1.0858,1.0895,1.0913,1.0896,1.0994,1.0977,1.0941,1.0885,1.0987,1.1028,1.1044,1.0824,1.0823,1.0821,1.082,0,0,1.0759,1.0773,1.0791,1.0804,1.0819,1.0854,1.0908,1.0943,1.0968,1.0989,1.1035,1.1091,1.1059,1.1078,1.1061,1.1103,1.1204,1.1063,1.1063,1.1091,1.1315,1.1344,1.1364,1.1184,1.1187,1.1189,1.1315,0,1.0879,1.0973,1.0953,1.1045,1.1087,1.1044,1.1092,1.1108,1.1105,1.1141,1.1138,1.118,1.1133,1.1144,1.1183,1.1183,1.1249,1.1174,1.1229,1.1231,1.1228,1.1385,1.1415,1.1532,1.133,1.1333,1.1335,0,1.1032,1.1058,1.1155,1.1165,1.1181,1.1225,1.1255,1.1289,1.1306,1.1302,1.1323,1.1299,1.1354,1.1295,1.1372,1.1321,1.1342,1.1346,1.135,1.1356,1.1291,1.1398,1.1569,1.1588,1.136,1.1358,1.1356,0,1.1147,1.1207,1.1272,1.1284,1.1297,1.1329,1.1336,1.1349,1.1372,1.1399,1.1413,1.1446,1.1465,1.1492,1.1478,1.1436,1.1559,1.1498,1.1558,1.1559,1.1588,1.1587,1.1768,1.1598,1.1597,1.1597,1.1597,0,1.1285,1.1346,1.1324,1.1365,1.1433,1.1409,1.1477,1.1479,1.1492,1.1533,1.1498,1.1538,1.1515,1.1554,1.1543,1.161,1.1618,1.1617,1.1614,1.1622,1.1622,1.1637,1.163,1.1602,1.1601,1.16,1.1599,0,1.1426,1.1414,1.1483,1.1489,1.1492,1.1542,1.1548,1.1586,1.1581,1.1634,1.1645,1.1637,1.168,1.1668,1.1715,1.1708,1.1793,1.1778,1.1787,1.1784,1.1846,1.1842,1.2045,1.2072,1.1882,1.1884,1.1886,0,1.1516,1.1562,1.1573,1.1598,1.1607,1.1647,1.167,1.1648,1.1674,1.1697,1.1733,1.1773,1.1804,1.1875,1.1875,1.1911,1.1898,1.1967,1.1903,1.191,1.1902,1.1901,1.1906,1.198,1.1983,1.1984,1.1986,0,1.1677,1.1669,1.1702,1.1734,1.1762,1.1786,1.1808,1.183,1.181,1.184,1.1884,1.1908,1.1955,1.1996,1.2029,1.2037,1.201,1.2005,1.2022,1.2031,1.2036,1.2037,1.1824,1.2001,1.2,1.1999,1.1998,1.1997,1.1797,1.1836,1.1851,1.189,1.1903,1.1924,1.1961,1.1959,1.1995,1.2032,1.2017,1.2068,1.2084,1.2125,1.2137,1.2177,1.2151,1.2175,1.2181,1.2188,1.2197,1.2027,1.2183,1.2183,1.2182,1.2182,1.2181,0,1.1958,1.1965,1.2001,1.2032,1.2063,1.2031,1.2053,1.2082,1.2126,1.2144,1.2175,1.2225,1.2265,1.2267,1.2304,1.2336,1.2324,1.2347,1.2346,1.2348,1.2217,1.22,1.2356,1.2356,1.2356,1.2356,1.2356,1.2356,1.2046,1.2112,1.2105,1.2178,1.2184,1.2233,1.2249,1.2268,1.2282,1.234,1.2372,1.2373,1.2384,1.2422,1.2457,1.2457,1.2474,1.2502,1.2497,1.2375,1.2357,1.2341,1.2325,1.2505,1.2505,1.2626,1.2627,1.2628]},{"header":{"parameterUnit":"m.s-1","parameterCategory":1,"la1":30.2991,"la2":30.254,"lo1":-89.0895,"lo2":-89.0444,"dy":0.0017,"dx":0.0017,"nx":28,"ny":28,"refTime":"2025-12-25T09:00:00:Z","depth":0,"parameterNumber":3,"parameterNumberName":"V-component_of_WINDS"},"data":[0,0,0,0,0,0,0,0,0,0,0,0,0,0,0,0,0,0,0,0,0,0,0,0,0,0,0,0,0,0,0,0,0,0,0,0,0,0,0,0,0,0,0,0,0,0,0,0,0,0,0,0,0,0,0,0,0,0,3.8565,3.8566,0,3.8674,3.8675,3.8676,3.8655,3.8653,3.8651,3.8649,3.8756,3.876,3.8765,0,0,0,0,0,0,0,0,0,0,0,0,0,3.8334,3.8338,3.8565,3.8566,3.8568,3.8674,3.8675,3.8677,3.8655,3.8653,3.865,3.8648,3.8754,3.876,3.8765,0,0,0,0,0,0,0,0,0,0,0,0,0,3.8437,3.8339,3.8565,3.857,3.8571,3.8674,3.8675,3.8677,3.8656,3.8653,3.865,3.8647,3.8752,3.8759,3.8766,3.8868,0,0,3.8787,3.879,0,0,0,0,0,0,0,0,3.8432,3.8446,3.8568,3.857,3.8572,3.8648,3.8633,3.8741,3.8657,3.8624,3.8649,3.8646,3.8722,3.8731,3.8758,3.8873,3.8878,3.8788,3.8792,3.8795,3.8797,0,0,0,0,0,0,0,3.8424,3.8441,3.8608,3.857,3.8572,3.8565,3.8577,3.8653,3.8688,3.8626,3.8625,3.8638,3.8722,3.8751,3.876,3.8879,3.8788,3.8794,3.8798,3.8801,3.9085,3.9088,0,0,0,0,0,0,3.8416,3.8435,3.8604,3.8611,3.8493,3.8572,3.8585,3.8626,3.8687,3.8693,3.8641,3.8637,3.8741,3.8752,3.8764,3.8889,3.8795,3.8802,3.8806,3.9081,3.9085,3.9089,0,0,0,0,0,0,3.8411,3.8431,3.86,3.8523,3.8544,3.8579,3.8626,3.863,3.8659,3.8698,3.8704,3.8664,3.8739,3.8754,3.8843,3.8892,3.8805,3.8811,3.9077,3.9082,3.9087,3.9138,0,0,0,0,0,0,3.8405,3.843,3.847,3.8524,3.8548,3.8679,3.8629,3.8634,3.8672,3.8668,3.8722,3.8728,3.8738,3.8833,3.885,3.89,3.8817,3.9073,3.908,3.9085,3.9132,3.9144,3.9154,0,0,0,0,0,3.8397,3.8479,3.8472,3.8493,3.86,3.8682,3.8695,3.8707,3.8676,3.8716,3.8741,3.8726,3.8884,3.8842,3.8861,3.8914,3.907,3.9078,3.9085,3.9127,3.9142,3.9154,0,0,0,0,0,0,3.8427,3.8486,3.8479,3.8582,3.8627,3.8678,3.8729,3.8722,3.8775,3.8769,3.878,3.8792,3.8883,3.8907,3.886,3.9016,3.8972,3.8984,3.8997,3.9012,3.9023,3.9015,3.8823,0,0,0,0,0,3.8446,3.851,3.8557,3.8642,3.8666,3.8694,3.873,3.8735,3.8782,3.88,3.8832,3.8876,3.8936,3.8975,3.9032,3.9135,3.9146,3.9181,3.9192,3.9201,3.9211,3.9268,3.9284,3.9113,3.9113,3.9113,0,0,3.8486,3.8525,3.8565,3.865,3.8686,3.875,3.871,3.8779,3.8827,3.881,3.8897,3.8922,3.8972,3.9069,3.9113,3.9092,3.9261,3.921,3.9217,3.9223,3.9277,3.9293,3.9308,3.9119,3.9118,3.9117,0,0,3.8591,3.8627,3.8703,3.8741,3.8796,3.8814,3.8832,3.8885,3.8901,3.8989,3.8978,3.9033,3.9136,3.9173,3.9205,3.9325,3.9313,3.9342,3.9401,3.9456,3.947,3.9482,3.9525,3.9541,3.9352,3.9352,3.9353,0,3.8632,3.8731,3.8743,3.8814,3.8852,3.8842,3.8918,3.8953,3.9023,3.9049,3.9025,3.9154,3.9187,3.9293,3.9322,3.9348,3.9369,3.9337,3.9467,3.9479,3.949,3.9532,3.9548,3.9356,3.9355,3.9355,3.9355,0,3.8779,3.8847,3.8902,3.8973,3.9016,3.909,3.9112,3.9154,3.9156,3.9176,3.9265,3.9305,3.937,3.9395,3.9396,3.9501,3.9487,3.9465,3.9421,3.951,3.9549,3.9565,3.9361,3.9359,3.9358,3.9358,0,0,3.8907,3.8984,3.9004,3.9037,3.9097,3.915,3.9222,3.9288,3.9324,3.9373,3.9434,3.9521,3.9502,3.9538,3.9543,3.9592,3.9685,3.9564,3.9565,3.9586,3.9804,3.9821,3.984,3.9678,3.9681,3.9683,3.9801,0,3.9018,3.9149,3.9162,3.9278,3.9341,3.9333,3.9396,3.9439,3.946,3.9516,3.9538,3.96,3.9569,3.9591,3.9639,3.9664,3.973,3.9656,3.9734,3.9737,3.9723,3.986,3.9878,3.9987,3.9816,3.9818,3.982,0,3.9165,3.9221,3.9344,3.9398,3.9424,3.9481,3.9543,3.9596,3.9645,3.9657,3.9698,3.9697,3.9771,3.9724,3.9825,3.9775,3.9808,3.9825,3.9829,3.9838,3.9785,3.9873,4.0022,4.0038,3.9844,3.9842,3.9841,0,3.9247,3.9353,3.944,3.9468,3.9532,3.9572,3.96,3.9646,3.9685,3.9738,3.9764,3.9824,3.9857,3.9904,3.9918,3.9883,4.002,3.9974,4.0031,4.0031,4.0061,4.0059,4.0218,4.0081,4.0081,4.008,4.008,0,3.9371,3.9447,3.9478,3.9532,3.9617,3.9631,3.9714,3.9739,3.9781,3.9839,3.9833,3.9888,3.9904,3.996,3.9972,4.0055,4.0069,4.008,4.0083,4.0082,4.008,4.0104,4.0097,4.0085,4.0084,4.0083,4.0082,0,3.9477,3.9501,3.9596,3.965,3.9665,3.9725,3.9769,3.9821,3.9841,3.9915,3.9932,3.9964,4.003,4.005,4.0129,4.0137,4.0234,4.0229,4.0219,4.0219,4.0276,4.0271,4.0456,4.0481,4.0327,4.0328,4.0329,0,3.9555,3.9613,3.9673,3.9713,3.9743,3.9807,3.9847,3.9862,3.9904,3.9965,4.0009,4.0075,4.0129,4.0236,4.0265,4.0325,4.0322,4.0383,4.0331,4.0329,4.0324,4.0321,4.0327,4.0393,4.0395,4.0396,4.0397,0,3.969,3.97,3.9759,3.9823,3.9872,3.9923,3.9971,4.0003,4.0025,4.0073,4.0142,4.0184,4.0266,4.0332,4.0394,4.0421,4.0413,4.0413,4.043,4.043,4.0422,4.0428,4.0246,4.0409,4.0408,4.0407,4.0406,4.0406,3.9785,3.9837,3.9889,3.9955,3.9993,4.0039,4.0091,4.0118,4.0177,4.0246,4.0251,4.0326,4.0373,4.0456,4.0486,4.0544,4.0526,4.055,4.0557,4.0563,4.0568,4.0412,4.0555,4.0555,4.0555,4.0555,4.0554,0,3.9922,3.9954,4.0015,4.0085,4.0137,4.0126,4.018,4.0224,4.029,4.0336,4.039,4.0469,4.0533,4.0568,4.0631,4.0671,4.0669,4.0687,4.0685,4.0691,4.058,4.056,4.0688,4.0688,4.0688,4.0688,4.0688,4.0688,3.9999,4.0087,4.0102,4.0209,4.0241,4.0316,4.0348,4.0389,4.0426,4.0516,4.057,4.0592,4.0633,4.07,4.0758,4.0766,4.079,4.0811,4.0817,4.0712,4.0699,4.0686,4.0667,4.0816,4.0816,4.0924,4.0925,4.0925]}]]